Regional Weather Roundup
Issued by NWS

Home | Current Version | Previous Version | Text Only | Print | Product List | Glossary On
Versions: 1 2 3 4 5 6 7 8 9 10 11 12 13 14 15 16 17 18 19 20 21 22 23 24 25 26 27 28 29 30 31 32 33 34 35 36 37 38 39 40 41 42 43 44 45 46 47 48 49 50
000
ASUS43 KFSD 300110
RWRSD

WEATHER ROUNDUP FOR SOUTH DAKOTA
NATIONAL WEATHER SERVICE SIOUX FALLS SD
800 PM CDT SAT APR 29 2017

NOTE: "FAIR" INDICATES FEW OR NO CLOUDS BELOW 12,000 FEET WITH NO
SIGNIFICANT WEATHER AND/OR OBSTRUCTIONS TO VISIBILITY.


SDZ001>005-009-010-012>017-300200-
NORTHWEST AND NORTH CENTRAL SOUTH DAKOTA

CITY           SKY/WX    TMP DP  RH WIND       PRES   REMARKS
BUFFALO          N/A     56  19  23 NW5       30.11F
FAITH            N/A     55  19  24 NE9       30.15F
MOBRIDGE       CLOUDY    55  22  27 E8        30.15F
$$

SDZ012>016-024>037-041>051-057-063-072>074-300200-
SOUTHWEST AND SOUTH CENTRAL SOUTH DAKOTA

CITY           SKY/WX    TMP DP  RH WIND       PRES   REMARKS
RAPID CTY ARPT CLEAR     51  20  29 NE6       30.15F
PIERRE         PTCLDY    53  16  23 E12       30.14F
CUSTER         CLEAR     40  14  34 NE9       30.15S
ELLSWORTH AFB  CLEAR     53  17  24 NE8       30.15F
PHILIP         PTCLDY    49  26  41 N8        30.15F
PINE RIDGE     PTCLDY    48  22  35 NE9       30.16R
SPEARFISH      FAIR      46  21  36 E5        30.17F
WINNER         FAIR      52  22  30 NE13      30.15S
$$

SDZ004>011-016>023-039-040-300200-
NORTHEAST SOUTH DAKOTA

CITY           SKY/WX    TMP DP  RH WIND       PRES   REMARKS
ABERDEEN       PTCLDY    53  19  26 NE8       30.20R
WATERTOWN      CLOUDY    50  23  34 NE12      30.15F
BROOKINGS      CLOUDY    50  23  34 NE13G20   30.13F
SISSETON         N/A     55  27  34 NE10      30.18F
$$

SDZ017-020-022-023-036>040-048>070-300200-
SOUTHEAST SOUTH DAKOTA

CITY           SKY/WX    TMP DP  RH WIND       PRES   REMARKS
SIOUX FALLS    CLOUDY    50  26  39 NE14      30.11R
HURON          CLOUDY    52  26  36 NE9       30.16S
CHAMBERLAIN    CLOUDY    54  23  30 N8        30.16S
MITCHELL       CLOUDY    52  24  33 NE14      30.16R
YANKTON        CLOUDY    50  25  37 NE13      30.10R
$$

ABBREVIATIONS USED IN REMARKS
   TC - TEMPERATURE IN CELSIUS
  WCI - WIND CHILL INDEX
   HX - HEAT INDEX
  VSB - VISIBILITY




USA.gov is the U.S. government's official web portal to all federal, state and local government web resources and services.